{"data":{"norad_id":40889,"epoch":"2026-05-24T07:17:44.873376Z","epoch_age_seconds":10312830,"freshness":"OLD","line1":"1 40889U 15045A   26144.30399159 -.00000014  00000+0  00000+0 0  9994","line2":"2 40889  54.9357 222.4171 0006405 263.0112  96.9692  1.67409242 66562","mean_motion":1.67409242,"eccentricity":0.0006405,"inclination_deg":54.9357,"raan_deg":222.4171,"arg_perigee_deg":263.0112,"mean_anomaly_deg":96.9692,"bstar":0,"rev_number":6656,"period_min":860.16756470351,"perigee_km":23563.161656845,"apogee_km":23601.541042421,"semimajor_km":29960.488349633,"source":"CELESTRAK","updated_at":"2026-06-22T09:00:51.594435Z"}}